Houma, LA

7:29 AM CDT on April 25, 2018 (GMT -0500)
Houma-terrebonne

Weather History for KHUM - June, 2013

Change the Weather History Date:

Wednesday, June 19, 2013

  Actual Average Record
Temperature  
Mean Temperature 80 °F -  
Max Temperature 89 °F 89 °F 97 °F (1953)
Min Temperature 71 °F 71 °F 63 °F (1933)
Cooling Degree Days 15    
Growing Degree Days 30 (Base 50)    
Moisture  
Dew Point 71 °F    
Average Humidity 78    
Maximum Humidity 94    
Minimum Humidity 46    
Precipitation  
Precipitation 0.00 in - - ()
Sea Level Pressure  
Sea Level Pressure 29.99 in    
Wind  
Wind Speed 1 mph (North)    
Max Wind Speed 12 mph    
Max Gust Speed -    
Visibility 8 miles    
Events Thunderstorm    
Averages and records for this station are not official NWS values.
T = Trace of Precipitation, MM = Missing Value Source: NWS Daily Summary

Daily Weather History Graph

Daily Weather History Graph

Search for Another Location

Airport or City:

Astronomy

Jun. 19, 2013 Rise Set
Actual Time 6:02 AM CDT 8:05 PM CDT
Civil Twilight 5:35 AM CDT 8:32 PM CDT
Nautical Twilight 5:02 AM CDT 9:05 PM CDT
Astronomical Twilight 4:26 AM CDT 9:41 PM CDT
Moon 4:09 PM CDT (6/19) 2:33 AM CDT (6/19)
Length of Visible Light 14h 57m
Length of Day
14h 02m
Waxing Gibbous, 80% of the Moon is Illuminated
Jun 19
Waxing Gibbous
Jun 23
Full
Jun 29
Last Quarter
Jul 8
New
Jul 15
First Quarter

Hourly Weather History & Observations

Time (CDT) Temp. Heat Index Dew Point Humidity Pressure Visibility Wind Dir Wind Speed Gust Speed Precip Events Conditions
12:15 AM 75.7 °F - 70.9 °F 85% 29.98 in 7.0 mi Calm Calm - N/A   Clear
12:35 AM 73.9 °F - 70.2 °F 88% 29.98 in 7.0 mi Calm Calm - N/A   Clear
12:55 AM 73.9 °F - 70.3 °F 88% 29.98 in 10.0 mi Calm Calm - N/A   Clear
1:15 AM 75.2 °F - 70.7 °F 86% 29.98 in 10.0 mi Calm Calm - N/A   Clear
1:35 AM 75.0 °F - 70.2 °F 85% 29.97 in 10.0 mi Calm Calm - N/A   Clear
1:55 AM 73.9 °F - 70.2 °F 88% 29.97 in 10.0 mi Calm Calm - N/A   Clear
2:15 AM 73.0 °F - 69.3 °F 88% 29.96 in 10.0 mi Calm Calm - N/A   Clear
2:35 AM 72.5 °F - 68.9 °F 88% 29.96 in 5.0 mi Calm Calm - N/A   Clear
2:55 AM 73.6 °F - 70.2 °F 89% 29.96 in 10.0 mi Calm Calm - N/A   Clear
3:15 AM 72.9 °F - 69.8 °F 90% 29.95 in 7.0 mi Calm Calm - N/A   Clear
3:35 AM 74.3 °F - 70.3 °F 87% 29.95 in 10.0 mi Calm Calm - N/A   Clear
3:55 AM 72.7 °F - 69.1 °F 88% 29.95 in 10.0 mi Calm Calm - N/A   Clear
4:15 AM 72.5 °F - 69.3 °F 90% 29.95 in 7.0 mi Calm Calm - N/A   Clear
4:35 AM 74.1 °F - 71.1 °F 90% 29.95 in 7.0 mi Calm Calm - N/A   Clear
4:55 AM 72.5 °F - 69.6 °F 91% 29.96 in 5.0 mi Calm Calm - N/A   Clear
5:15 AM 72.7 °F - 70.0 °F 91% 29.95 in 2.5 mi Calm Calm - N/A   Clear
5:35 AM 72.9 °F - 70.3 °F 92% 29.96 in 7.0 mi Calm Calm - N/A   Clear
5:51 AM 71.6 °F - 69.8 °F 94% 29.98 in 6.0 mi South 4.6 mph - N/A   Scattered Clouds
5:55 AM 72.1 °F - 69.6 °F 92% 29.97 in 1.2 mi Calm Calm - N/A   Mist
6:50 AM 73.4 °F - 71.6 °F 94% 30.00 in 7.0 mi Calm Calm - N/A   Scattered Clouds
7:50 AM 80.6 °F 85.4 °F 73.4 °F 79% 30.02 in 7.0 mi Calm Calm - N/A   Scattered Clouds
8:49 AM - - - N/A% 30.02 in 7.0 mi WSW 4.6 mph - N/A   Partly Cloudy
9:49 AM 86.0 °F 91.8 °F 71.6 °F 62% 30.02 in 7.0 mi WSW 6.9 mph - N/A   Scattered Clouds
10:49 AM 87.8 °F 92.6 °F 69.8 °F 55% 30.03 in 7.0 mi WNW 6.9 mph - N/A   Mostly Cloudy
11:50 AM 87.8 °F 90.4 °F 66.2 °F 49% 30.04 in 7.0 mi SSW 4.6 mph - N/A   Scattered Clouds
12:48 PM 89.6 °F 92.2 °F 66.2 °F 46% 30.03 in 7.0 mi West 10.4 mph - N/A   Scattered Clouds
1:50 PM 86.0 °F 91.8 °F 71.6 °F 62% 30.00 in 7.0 mi North 9.2 mph - N/A   Scattered Clouds
2:50 PM 86.0 °F 93.4 °F 73.4 °F 66% 30.01 in 7.0 mi North 11.5 mph - N/A   Scattered Clouds
3:50 PM 87.8 °F 93.8 °F 71.6 °F 58% 30.00 in 7.0 mi NNE 4.6 mph - N/A   Scattered Clouds
4:50 PM 87.8 °F 93.8 °F 71.6 °F 58% 30.00 in 7.0 mi North 4.6 mph - N/A   Scattered Clouds
5:50 PM 86.0 °F 91.8 °F 71.6 °F 62% 30.00 in 7.0 mi North 5.8 mph - N/A   Scattered Clouds
6:50 PM 84.2 °F 89.6 °F 71.6 °F 66% 30.00 in 7.0 mi North 4.6 mph - N/A   Scattered Clouds
7:15 PM 84.4 °F 89.0 °F 70.5 °F 63% 29.99 in 7.0 mi North 3.5 mph - N/A   Scattered Clouds
7:35 PM 84.2 °F 88.7 °F 70.5 °F 63% 29.99 in 10.0 mi North 3.5 mph - N/A Thunderstorm Scattered Clouds
7:55 PM 83.3 °F 87.9 °F 71.1 °F 66% 30.00 in 7.0 mi NNE 3.5 mph - N/A   Scattered Clouds
8:15 PM 82.8 °F 87.4 °F 71.2 °F 68% 30.01 in 7.0 mi NE 4.6 mph - N/A   Mostly Cloudy
8:35 PM 81.9 °F 86.4 °F 71.6 °F 71% 30.01 in 10.0 mi NE 3.5 mph - N/A   Scattered Clouds
8:55 PM 81.1 °F 85.4 °F 71.8 °F 73% 30.01 in 10.0 mi ENE 3.5 mph - N/A   Clear
9:15 PM 79.7 °F - 72.0 °F 77% 30.01 in 10.0 mi Calm Calm - N/A   Clear
9:35 PM 78.3 °F - 72.3 °F 82% 30.02 in 7.0 mi Calm Calm - N/A   Clear
9:55 PM 78.3 °F - 71.6 °F 80% 30.02 in 10.0 mi SE 3.5 mph - N/A   Clear
10:15 PM 77.4 °F - 71.8 °F 83% 30.03 in 10.0 mi Calm Calm - N/A   Clear
10:35 PM 77.0 °F - 72.0 °F 84% 30.03 in 10.0 mi Calm Calm - N/A   Clear
10:55 PM 77.0 °F - 72.0 °F 84% 30.03 in 10.0 mi Calm Calm - N/A   Clear
11:15 PM 77.0 °F - 71.8 °F 84% 30.03 in 10.0 mi Calm Calm - N/A   Clear
11:35 PM 77.0 °F - 72.1 °F 85% 30.04 in 10.0 mi Calm Calm - N/A   Mostly Cloudy
11:55 PM 76.5 °F - 72.0 °F 86% 30.03 in 7.0 mi Calm Calm - N/A   Scattered Clouds